Regional Weather Roundup
Issued by NWS

Home | Current Version | Previous Version | Text Only | Print | Product List | Glossary On
Versions: 1 2 3 4 5 6 7 8 9 10 11 12 13 14 15 16 17 18 19 20 21 22 23 24 25 26 27 28 29 30 31 32 33 34 35 36 37 38 39 40 41 42 43 44 45 46 47 48 49 50
000
ASUS42 KKEY 242110
RWRKEY

FLORIDA REGIONAL WEATHER ROUNDUP FOR THE FLORIDA KEYS
NATIONAL WEATHER SERVICE KEY WEST FLORIDA
500 PM EDT THU JUL 24 2014

...SOUTH FLORIDA AND THE KEYS...

CITY           SKY/WX    TMP DP  RH WIND       PRES   REMARKS
FORT MYERS     PTSUNNY   89  71  55 SW7       30.00F HX  95
SW REGIONAL AP PTSUNNY   86  72  62 SW10      30.01S HX  92
NAPLES         PTSUNNY   88  78  72 SW6       30.01F HX 101
MIAMI          MOSUNNY   88  74  63 CALM      30.02F HX  96
WEST KENDALL   SUNNY     89  75  63 W8        30.02F HX  99
HOMESTEAD      NOT AVBL
MARATHON       SUNNY     90  76  63 VRB5      30.00F HX 101
BOCA CHICA NAS MOSUNNY   89  75  63 SE6       30.01F HX  99
KEY WEST INTL  SUNNY     89  75  63 VRB6      30.01F HX  99

...INTERNATIONAL WEATHER...

CITY           SKY/WX    TMP DP  RH WIND       PRES   REMARKS
NASSAU BAHAMAS NOT AVBL
CANCUN MEXICO  MOSUNNY   90  75  62 E9        29.97F HX 100
COZUMEL MEXICO MOSUNNY   84  73  70 E14       29.96F HX  91

ADJACENT COASTAL WATERS...

STATION/POSITION TIME  SKY/WX   TEMP    WIND        PRES    WAVE
                                AIR SEA DIR/SP/G            HT/PER
                 (UTC)          (F)     (DEG/KT/KT) (MB)    (FT/S)
PULASKI SHOAL LI 2100            87      CALM  /  1 1016.3F
SAND KEY         2100            85     120/  4/  5 1016.2F
SOMBRERO KEY     2100            88      90/  4/  5 1017.1F
LONG KEY         2000            87 89   CALM  /  2 1017.4F
MOLASSES REEF    2100            85 87   80/  3/  4 1016.4F
FOWEY ROCKS      2100            85 87  130/  5/  5 1016.9F
Buoy 42080       NOT AVBL

$$


USA.gov is the U.S. government's official web portal to all federal, state and local government web resources and services.